Aérodrome :
LOGIN :

S'inscrire | Disclaimer

   EN    FR    IT 

 










Légende :    VFR   VFR Marginal   IFR   IFR Intensif   IFR Très Intensif
Visi : 
Plafond : 
>= 8 km
>= 3000ft
5 à 8 km
1000 à 3000 ft
1500m à 5 km
500 à 1000 ft
800 à 1500m
200 à 500 ft
< 800m
< 200 ft
Symboles :   Orages  Brouillard  Fortes neiges  Fortes précipitations  Vent > 20 kt
SIGMETs :   Divers  Orages  Givrage  Turbulence  Onde Orograph.  Cendres Volcan.







- Altitude de l'aérodrome : 622 ft
- Code IATA : BRS
- Voir les cartes d'approche


EGGD - Bristol Int.

DERNIER METAR :
  • 180450Z AUTO 17004KT 9999 NCD 15/14 Q1017

METARs EXPIRÉS :
  • 180420Z AUTO 18003KT 9999 NCD 15/14 Q1017
  • 180350Z AUTO 17002KT 9999 NCD 15/13 Q1017
  • 180320Z AUTO 18003KT 9999 NCD 15/13 Q1017
  • 180250Z AUTO 17004KT 9999 NCD 15/13 Q1017
  • 180220Z AUTO 18004KT 9999 NCD 15/13 Q1017

TAF TAF EGGD
Valide du 18 à 00h jusqu'au 19 à 00h UTC


172304Z 1800/1824 23006KT 9999 SCT030
ATIS : +44 1275 473 666
Pas de NOTAMs connus pour ce terrain.



MET'MAP, la Météo Aéronautique d'un coup d'oeil ! - Copyright ORBIFLY Décembre 2007 - Disclaimer

ORBIFLY MET'MAP TEAM :

Programmation & Développement : Alexandra Zaïnal
Conception & Développement : Baudouin d'Aumeries
Co-Programmation & Développement : Marc-Olivier Méhu
Soutien technique & logistique : Manuel Goepfert

Contact : metmap@orbifly.com




SOURCES & CREDITS :

   NOAA